Location: Hurstbourne Priors
(51.2000°N, 1.3667°W)
Time: 09:31:35
(UTC+00:00)

Cosmos 1892 - Pass Details

Date: 09 April 2020
Orbit: 503 x 526 km, 82.5° (Epoch: 06 June)

Event Time Altitude Azimuth Distance (km) Brightness Sun altitude
Rises 21:30:47 0° 342° (NNW) 2,676 7.4 -21.9°
Reaches altitude 10° 21:33:02 10° 334° (NNW) 1,782 6.5 -22.2°
Maximum altitude 21:36:37 35° 268° (W) 861 4.1 -22.5°
Enters shadow 21:37:48 29° 231° (SW) 998 4.1 -22.7°
